sat.trackr.live / text

‹ back to catalog

STARLINK-33833

NORAD 63498 · 2025-071F

PAYLOAD ACTIVE UNKNOWN

§ Identity

Operator
Country
US
Launch date
2025-04-07
Launch site
AFWTR
Launch vehicle
Mass (kg)
RCS (m²)

Purposes: comms

External: N2YO · Heavens-Above · Gunter

§ Orbital elements

Epoch: 2026-09-20T10:53:30.436800Z

Period
94.01 min
Inclination
53.1606°
Eccentricity
0.0001294
Mean motion
15.31717791 rev/d
Perigee alt
469.8 km
Apogee alt
471.6 km
Semi-major
6,848.8 km
B*
3.4889e-4
RAAN
314.2397°
Arg perigee
86.5785°
Mean anomaly
273.5365°
Rev number
8,260

§ Raw data

STARLINK-338331 63498U 25071F   26263.45382450  .00010482  00000+0  34889-3 0  99942 63498  53.1606 314.2397 0001294  86.5785 273.5365 15.31717791 82606

JSON: /api/v1/satellites/63498 · /tle

For live sub-satellite position, see the globe view (requires WebGL).

§ Visibility from observer

Set your observer location to see the next 7 days of passes ≥ 10°. The values pass through the URL so the page stays shareable.

No JS? Fill the form by hand. The geolocation button needs JavaScript.